Wind_Speed
29 25 22 21 19 16 15 13 11 12 13 14 14 15 15 15 16 18 17 17 15 14 12 14 8 8 6 6 5 3 2 4 8 4 7 11 11 10 10 7 8 6 5
31 28 24 21 18 16 15 11 9 10 11 13 15 16 18 18 18 20 21 19 18 17 15 15 10 9 10 6 6 4 4 6 11 10 12 11 10 11 10 9 10 9 8
28 27 26 24 20 17 16 15 12 12 13 15 17 19 20 21 22 20 21 21 20 16 15 15 9 12 14 9 4 4 7 12 14 17 13 11 11 14 10 8 13 11 6
23 21 24 22 17 15 13 13 14 14 15 15 16 18 18 18 21 23 22 24 21 15 14 10 10 14 14 10 6 5 12 17 17 19 17 14 12 14 10 11 13 11 9
22 19 16 14 14 12 13 14 10 6 6 6 14 18 15 12 16 19 19 23 19 12 12 11 11 11 13 9 8 8 9 18 20 19 16 9 10 11 11 15 14 11 10
18 17 12 9 6 2 3 7 13 13 15 16 17 17 19 23 15 19 20 18 20 12 14 12 11 11 13 10 7 7 6 10 25 18 14 16 11 11 13 16 13 6 3
10 8 6 4 2 6 8 11 15 16 17 17 18 19 18 18 19 18 17 13 13 12 18 15 15 12 11 11 8 7 9 11 13 22 20 18 15 17 17 14 10 10 6
11 9 7 6 4 5 6 6 10 12 14 16 17 17 18 14 17 13 9 8 10 12 19 18 16 11 12 12 11 12 10 10 11 14 17 18 17 13 11 7 7 10 7
7 4 1 2 3 5 6 8 10 13 16 22 20 17 13 11 10 9 7 11 8 6 10 13 15 11 14 15 15 15 12 15 14 11 12 14 12 10 8 6 1 14 8
6 4 2 2 4 5 7 10 12 13 14 19 17 10 7 8 9 8 9 7 8 3 8 14 16 15 17 18 16 15 13 14 13 11 12 12 10 11 7 4 4 6 5
6 4 3 4 4 7 9 10 12 16 11 19 19 17 9 7 4 6 5 4 7 3 4 8 15 14 17 18 17 14 12 14 13 14 13 13 14 11 7 3 3 7 4
4 5 3 5 5 7 9 11 14 16 17 18 21 21 17 14 13 13 11 8 5 4 4 6 11 15 17 19 16 14 12 14 16 14 13 13 13 11 7 4 6 6 7
5 2 2 2 3 6 10 11 13 16 18 16 15 18 14 16 16 15 11 9 7 7 6 8 12 16 18 21 16 15 15 19 17 16 16 12 14 15 6 11 10 8 10
5 4 2 0 3 1 6 9 12 16 16 15 16 15 13 13 18 18 16 12 8 8 6 11 14 19 21 22 18 20 16 18 15 14 16 18 17 14 11 14 12 10 14
2 2 5 2 5 5 5 9 13 16 16 15 14 12 12 13 15 18 18 18 8 4 6 8 11 19 21 22 21 21 21 19 15 10 25 19 12 14 13 12 10 11 11
13 8 12 12 9 6 9 6 13 12 13 15 16 17 16 12 13 16 19 18 8 7 12 13 16 19 22 26 25 23 22 19 15 18 23 17 17 15 12 14 12 16 16
12 9 10 14 16 11 11 11 7 10 13 14 17 15 17 21 21 17 16 17 6 6 8 12 17 19 21 21 24 24 24 24 17 13 22 17 16 15 16 13 10 15 19
7 10 9 10 11 13 13 12 15 14 14 15 16 16 18 22 18 16 11 10 9 7 12 7 15 20 21 22 23 25 26 25 21 17 24 19 17 16 19 15 13 10 26
4 6 5 5 7 13 15 16 16 15 15 15 15 16 21 25 19 14 15 15 14 13 11 13 11 16 20 22 22 22 23 24 25 21 24 21 17 17 20 16 15 12 21
6 6 11 15 16 16 16 16 16 16 15 15 15 16 22 24 22 21 18 15 17 15 14 11 12 15 15 19 23 23 25 24 23 25 26 24 21 19 16 19 18 16 19
15 17 16 16 17 16 16 15 15 14 14 14 14 14 17 17 16 16 16 15 15 16 15 15 12 11 9 17 21 25 28 23 20 31 31 28 27 24 18 16 20 22 17
18 18 16 15 14 16 15 14 14 14 13 13 13 14 16 16 16 16 15 15 15 15 14 14 14 11 10 5 14 21 23 23 21 30 35 32 27 31 17 13 17 24 21
15 15 15 16 15 14 15 13 12 13 13 14 14 14 13 13 16 16 17 16 16 15 13 14 13 13 11 6 5 10 14 22 27 28 33 33 29 32 21 18 14 19 19
16 17 15 14 15 13 13 12 14 14 14 14 15 14 14 13 14 14 14 15 15 14 12 12 12 12 12 12 8 6 11 13 16 23 29 32 32 33 23 23 20 20 18
18 17 15 13 13 11 12 12 13 14 13 14 15 15 15 14 14 13 13 13 13 13 13 12 12 12 11 11 11 11 11 13 14 18 23 26 31 32 28 27 21 18 17
14 13 13 14 11 10 11 13 12 12 14 14 13 14 14 14 14 15 14 12 12 11 12 13 13 14 14 12 13 14 14 15 16 16 19 24 27 30 29 27 22 19 17
Wind_Direction
198 200 207 215 226 234 234 236 246 259 276 285 281 284 277 273 273 275 279 281 275 274 242 237 248 244 246 241 263 246 111 102 126 125 133 164 174 175 172 180 192 183 182
196 193 200 210 216 225 236 239 235 245 260 269 273 278 281 277 273 271 274 276 277 267 262 250 237 228 218 221 227 195 151 152 143 147 152 170 176 175 174 180 187 201 191
196 189 198 203 207 215 225 234 236 246 256 263 270 276 281 288 287 281 279 277 272 269 259 248 239 222 205 200 191 140 151 155 147 148 148 172 173 167 162 171 176 180 190
191 188 198 197 197 207 220 226 234 238 253 262 275 278 288 289 283 286 278 272 266 259 256 247 237 224 199 201 169 162 151 152 150 148 149 172 178 175 167 170 182 190 199
149 153 132 162 186 211 225 237 248 286 313 335 329 321 307 293 292 294 295 276 273 265 255 241 226 205 200 198 175 171 164 164 163 154 149 169 186 172 178 185 197 216 238
106 109 114 118 135 137 237 260 311 325 317 311 307 305 304 303 290 290 295 290 265 257 235 224 207 190 185 192 169 152 174 157 172 166 171 177 198 194 186 182 186 196 259
92 82 69 53 277 318 317 322 323 318 316 318 312 306 299 298 290 296 295 282 271 258 243 221 177 181 190 189 180 146 138 136 157 188 176 159 148 166 166 175 184 184 212
87 76 70 67 53 22 1 342 330 323 319 317 314 302 303 298 294 314 318 302 291 273 240 222 181 176 185 179 159 143 143 145 142 146 163 157 158 153 160 178 223 208 214
84 88 133 75 59 38 17 1 358 353 343 343 321 316 308 304 310 327 343 335 346 337 243 203 185 191 171 164 155 147 138 126 130 148 155 151 155 171 164 157 338 194 205
132 136 105 83 50 23 6 360 2 353 357 1 353 351 353 321 329 331 335 343 341 254 204 191 191 190 175 169 170 167 154 151 156 160 162 158 157 149 122 81 56 130 160
99 111 100 33 44 10 8 12 9 7 17 21 20 24 27 8 356 15 7 37 33 348 212 202 174 181 182 176 185 186 178 158 149 144 143 145 147 154 156 131 69 76 72
89 81 69 37 40 16 17 20 24 32 30 22 23 31 43 58 63 57 50 16 342 318 62 186 187 180 189 188 186 180 177 166 158 158 161 155 158 163 167 162 118 58 50
100 103 87 81 40 12 36 33 41 35 28 24 27 32 43 58 48 36 24 355 342 296 244 235 221 203 189 192 192 195 189 178 178 194 198 189 179 161 144 144 120 86 82
117 108 122 252 32 76 48 37 50 34 33 30 20 20 23 12 9 7 2 351 335 321 257 250 217 206 198 196 189 187 198 194 194 217 195 167 155 152 146 146 143 116 92
32 68 32 90 114 86 47 82 60 42 34 24 20 19 14 11 3 356 353 333 315 288 211 213 202 190 186 193 193 197 209 211 221 249 169 164 162 160 171 183 171 171 122
61 56 26 24 45 42 88 95 72 48 38 26 25 19 7 3 350 347 348 342 297 270 209 200 197 198 188 194 200 206 216 213 220 185 172 169 165 175 193 203 201 172 141
46 35 34 34 27 39 25 17 84 55 40 29 15 12 7 358 344 343 342 349 321 255 219 220 204 203 210 205 206 214 220 213 212 211 181 176 171 186 189 194 198 175 161
13 66 35 19 18 9 5 64 74 56 36 19 6 358 348 353 358 0 351 3 10 322 250 228 218 215 217 222 217 221 225 225 213 218 189 188 185 192 188 192 208 189 177
95 59 54 2 29 54 56 51 43 35 24 11 358 351 350 353 2 19 27 9 352 340 302 270 255 227 225 226 232 227 224 227 219 217 196 192 187 189 191 198 204 218 182
121 75 52 57 57 53 37 27 21 18 9 359 359 2 350 351 3 359 360 353 352 349 346 344 289 264 248 242 232 233 232 230 226 216 197 187 191 191 206 204 207 207 193
78 69 67 57 47 39 31 24 17 3 358 347 351 354 347 351 347 348 347 348 339 336 334 327 325 332 285 258 237 229 229 237 243 219 200 192 188 197 215 225 213 202 189
75 69 62 56 44 43 32 19 17 5 358 352 348 346 344 342 342 341 337 333 326 321 322 320 313 307 321 296 250 234 227 224 226 208 201 191 188 195 210 191 185 192 193
76 71 63 50 50 42 32 21 11 6 358 349 347 347 351 342 336 334 330 329 326 322 319 314 309 298 282 292 202 238 248 236 226 214 208 197 194 197 194 190 188 199 199
79 69 61 50 45 39 23 13 13 8 1 356 350 349 352 346 339 333 332 334 333 329 323 316 309 300 286 271 261 230 222 231 231 223 217 209 198 198 197 202 205 202 200
84 71 63 53 46 33 23 20 17 14 8 2 358 352 348 344 345 344 345 341 336 331 325 314 304 294 283 271 259 248 229 226 229 219 216 214 206 201 201 202 199 201 202
100 85 73 54 50 36 29 20 13 12 8 358 360 2 1 356 354 360 358 358 349 340 328 319 305 291 275 263 257 250 239 227 222 221 213 210 208 204 201 203 200 201 197
Height
781 785 790 794 798 799 800 800 802 804 805 805 804 803 802 802 801 799 799 799 800 799 796 795 796 796 797 797 799 798 798 797 802 808 808 813 815 816 818 818 819 819 820
773 777 785 791 794 797 799 800 800 800 800 800 800 800 800 799 798 794 793 794 793 793 792 791 791 792 792 793 797 796 797 797 798 804 806 812 813 814 815 816 816 818 820
774 774 782 787 791 793 794 796 797 797 797 797 796 795 796 796 794 790 789 788 786 787 786 785 787 787 788 791 793 794 794 797 797 799 804 811 811 811 813 816 816 817 819
773 778 782 786 789 792 793 792 792 789 792 792 792 790 790 791 790 787 783 781 779 780 782 782 783 783 785 788 790 792 794 795 798 800 801 807 809 810 812 812 815 816 816
771 776 781 786 788 791 790 791 791 791 792 791 791 790 788 786 784 781 779 776 774 776 778 777 779 781 784 785 787 790 793 794 798 799 800 804 807 808 809 810 812 813 815
775 776 782 786 788 789 790 789 790 787 790 789 787 785 784 784 779 777 775 773 772 775 774 775 778 781 783 784 786 788 791 792 795 797 798 800 803 805 805 807 809 812 813
778 780 783 787 788 789 788 788 787 787 787 785 784 782 780 779 778 773 771 771 771 771 771 771 774 780 783 782 784 787 789 791 792 793 795 798 801 803 803 807 807 808 809
778 781 783 786 787 788 788 788 787 787 786 783 780 777 777 773 775 769 768 769 769 769 768 769 773 777 780 782 784 786 788 790 793 794 796 797 799 802 803 806 806 806 808
780 782 784 785 787 786 786 786 786 784 782 779 776 772 772 771 774 772 769 771 769 766 767 770 773 775 779 782 784 787 791 790 794 796 797 799 800 802 802 804 804 803 804
783 785 786 786 786 786 785 783 781 782 781 778 775 772 770 770 770 772 769 770 769 768 768 769 770 774 778 782 785 788 790 791 792 796 797 798 799 802 802 802 802 799 800
784 785 786 786 786 785 784 782 782 781 780 778 774 771 770 770 768 767 771 769 771 772 771 771 770 776 779 782 785 787 790 791 792 794 796 797 799 802 802 800 800 800 798
784 784 785 786 787 787 786 785 783 782 780 779 777 774 772 770 770 769 770 772 771 772 772 772 772 775 777 782 784 787 789 790 793 794 796 796 799 801 802 801 799 799 799
786 787 786 787 787 787 787 787 785 783 782 781 780 778 776 774 773 773 772 773 771 771 774 775 774 775 777 781 784 786 789 788 789 794 794 794 795 798 801 801 800 799 798
785 786 787 787 786 787 787 787 785 784 784 783 781 779 777 776 774 772 770 770 771 769 768 772 772 773 774 779 781 784 787 788 788 791 792 794 795 797 799 801 802 801 800
785 785 786 787 786 786 786 786 786 786 785 784 782 780 778 777 776 776 772 769 768 770 767 770 772 771 772 777 780 782 785 786 787 789 789 793 794 796 799 801 802 802 802
783 785 785 787 787 787 786 785 784 785 786 785 783 782 781 778 776 774 772 768 765 767 767 765 768 773 770 773 776 779 782 783 785 786 788 789 791 794 797 800 801 802 803
781 786 789 787 787 789 787 784 783 785 785 785 783 781 780 778 774 771 770 766 764 765 765 765 764 767 771 771 774 777 778 781 783 785 785 787 788 792 795 798 800 801 803
787 786 789 790 789 789 787 785 785 785 784 785 784 782 779 776 772 768 767 765 763 764 765 764 764 764 768 772 772 773 776 779 779 782 782 785 786 789 793 795 798 800 801
790 789 790 791 790 789 788 786 787 785 785 785 783 781 778 774 771 768 767 767 765 764 763 762 762 762 763 767 769 770 772 775 776 777 779 781 783 787 791 793 795 799 801
789 791 791 791 791 787 788 788 787 785 785 785 782 780 777 774 770 768 768 766 765 764 762 761 761 760 759 760 763 768 769 770 771 773 774 776 781 785 787 790 792 795 798
792 792 792 792 792 790 789 790 787 786 787 787 784 781 779 777 774 771 768 766 764 764 762 760 758 757 756 756 756 759 763 766 765 768 769 772 776 782 785 787 788 791 795
792 793 794 795 794 790 791 790 789 788 788 787 785 782 778 776 774 771 769 766 764 762 760 759 757 756 754 753 753 754 755 758 760 761 764 768 771 778 782 782 784 788 791
795 797 795 795 793 791 791 791 791 789 788 785 783 781 777 776 773 771 768 765 762 759 757 755 754 752 751 750 750 750 751 751 754 756 760 763 766 772 776 779 783 787 789
797 794 794 794 792 792 795 794 791 789 788 786 783 780 776 774 773 770 766 763 760 758 754 752 751 749 748 747 747 747 748 749 750 752 755 758 762 766 771 777 781 783 786
794 795 796 794 794 797 796 794 792 790 788 786 783 780 777 775 773 769 765 762 759 757 754 750 747 745 744 743 743 744 744 746 748 749 751 754 757 761 767 773 777 780 784
795 796 796 795 797 796 795 793 792 790 787 785 782 779 776 775 773 769 766 762 759 756 753 749 745 742 740 738 738 739 740 743 744 747 748 750 753 758 764 768 772 778 780